QPF
0.00 0.00 0.00 0.00 0.00 0.00 0.00 0.00 0.00 0.00 0.00 0.00 0.00 0.00 0.00 0.00 0.00 0.00 0.00 0.00 0.00 0.00 0.00 0.00 0.12 0.12 0.00 0.02 0.12 0.49 0.62 0.33 0.63 0.51 0.57 0.38 0.12 0.01 0.00 0.00 0.00 0.00
0.00 0.00 0.00 0.00 0.00 0.00 0.00 0.00 0.00 0.00 0.00 0.00 0.00 0.00 0.00 0.00 0.00 0.00 0.00 0.00 0.00 0.00 0.00 0.02 0.09 0.13 0.07 0.04 0.02 0.67 0.60 0.50 0.25 0.27 0.30 0.18 0.00 0.00 0.00 0.00 0.00 0.00
0.00 0.00 0.00 0.00 0.00 0.00 0.00 0.00 0.00 0.00 0.00 0.00 0.01 0.01 0.01 0.02 0.02 0.01 0.00 0.00 0.00 0.00 0.00 0.00 0.00 0.04 0.18 0.06 0.08 0.89 0.58 0.32 0.37 0.16 0.29 0.05 0.00 0.00 0.00 0.00 0.00 0.00
0.00 0.00 0.00 0.00 0.00 0.00 0.00 0.00 0.00 0.00 0.00 0.00 0.00 0.00 0.00 0.00 0.02 0.00 0.00 0.00 0.00 0.00 0.00 0.00 0.00 0.00 0.02 0.02 0.19 0.78 0.52 0.36 0.31 0.22 0.17 0.03 0.00 0.00 0.00 0.00 0.00 0.00
0.00 0.00 0.00 0.00 0.00 0.00 0.00 0.00 0.00 0.00 0.00 0.00 0.00 0.00 0.00 0.00 0.00 0.00 0.00 0.00 0.00 0.00 0.00 0.00 0.00 0.00 0.00 0.02 0.40 1.04 0.33 0.25 0.12 0.12 0.07 0.00 0.00 0.00 0.00 0.00 0.00 0.00
0.00 0.00 0.00 0.00 0.00 0.00 0.00 0.00 0.00 0.00 0.00 0.00 0.00 0.00 0.00 0.00 0.00 0.00 0.00 0.00 0.00 0.00 0.06 0.00 0.00 0.00 0.00 0.01 0.38 1.23 0.20 0.15 0.08 0.07 0.03 0.00 0.00 0.00 0.00 0.00 0.00 0.00
0.00 0.00 0.00 0.00 0.00 0.00 0.00 0.00 0.00 0.00 0.00 0.00 0.00 0.00 0.00 0.00 0.01 0.00 0.00 0.00 0.01 0.01 0.01 0.00 0.01 0.00 0.03 0.24 1.01 0.36 0.38 0.21 0.14 0.12 0.05 0.00 0.00 0.00 0.00 0.00 0.00 0.00
0.00 0.00 0.00 0.00 0.00 0.00 0.00 0.00 0.00 0.00 0.00 0.00 0.00 0.00 0.00 0.00 0.00 0.01 0.00 0.00 0.00 0.00 0.01 0.00 0.00 0.00 0.02 0.38 0.67 0.38 0.34 0.31 0.16 0.08 0.01 0.01 0.00 0.00 0.00 0.00 0.00 0.00
0.00 0.00 0.00 0.00 0.00 0.00 0.00 0.00 0.00 0.00 0.00 0.00 0.00 0.00 0.00 0.00 0.00 0.00 0.01 0.01 0.00 0.00 0.00 0.00 0.00 0.00 0.00 0.00 0.02 0.17 0.37 0.24 0.06 0.00 0.00 0.01 0.00 0.00 0.00 0.00 0.00 0.00
0.00 0.00 0.00 0.00 0.00 0.00 0.00 0.00 0.00 0.00 0.00 0.00 0.00 0.00 0.00 0.00 0.00 0.00 0.00 0.01 0.01 0.00 0.00 0.00 0.00 0.00 0.00 0.00 0.00 0.00 0.01 0.01 0.00 0.00 0.00 0.00 0.00 0.00 0.00 0.00 0.00 0.00
0.00 0.00 0.00 0.00 0.00 0.00 0.00 0.00 0.00 0.00 0.00 0.00 0.00 0.00 0.00 0.00 0.00 0.01 0.00 0.00 0.00 0.00 0.00 0.00 0.00 0.00 0.00 0.00 0.00 0.00 0.00 0.00 0.00 0.00 0.01 0.01 0.00 0.00 0.00 0.00 0.00 0.00
0.00 0.00 0.00 0.00 0.00 0.00 0.00 0.00 0.00 0.00 0.00 0.00 0.00 0.00 0.00 0.00 0.00 0.00 0.00 0.00 0.00 0.00 0.00 0.00 0.00 0.00 0.00 0.00 0.00 0.01 0.01 0.00 0.00 0.00 0.00 0.01 0.01 0.00 0.00 0.00 0.00 0.00
0.00 0.00 0.00 0.00 0.00 0.00 0.00 0.00 0.00 0.00 0.00 0.00 0.00 0.00 0.00 0.00 0.00 0.00 0.00 0.00 0.00 0.00 0.00 0.00 0.00 0.00 0.00 0.00 0.00 0.00 0.01 0.01 0.01 0.00 0.00 0.01 0.01 0.00 0.00 0.00 0.00 0.00
0.00 0.00 0.00 0.00 0.00 0.00 0.00 0.00 0.00 0.00 0.00 0.00 0.00 0.00 0.00 0.00 0.00 0.00 0.00 0.00 0.00 0.01 0.00 0.01 0.00 0.00 0.00 0.00 0.00 0.00 0.01 0.01 0.01 0.01 0.01 0.01 0.00 0.00 0.00 0.00 0.00 0.00
0.00 0.00 0.00 0.00 0.00 0.00 0.00 0.00 0.00 0.00 0.00 0.00 0.00 0.00 0.00 0.00 0.00 0.00 0.00 0.00 0.00 0.00 0.00 0.00 0.00 0.00 0.00 0.00 0.00 0.00 0.00 0.00 0.00 0.01 0.01 0.01 0.00 0.00 0.00 0.00 0.00 0.00
0.00 0.00 0.00 0.00 0.00 0.00 0.00 0.00 0.00 0.00 0.00 0.00 0.00 0.00 0.00 0.00 0.00 0.00 0.00 0.00 0.00 0.00 0.00 0.00 0.00 0.00 0.01 0.00 0.01 0.00 0.01 0.01 0.00 0.01 0.01 0.01 0.01 0.01 0.00 0.00 0.00 0.00
0.00 0.00 0.00 0.00 0.00 0.00 0.00 0.00 0.00 0.00 0.00 0.00 0.00 0.00 0.00 0.00 0.00 0.00 0.00 0.00 0.00 0.00 0.00 0.00 0.00 0.01 0.00 0.00 0.00 0.00 0.01 0.01 0.01 0.01 0.02 0.02 0.02 0.01 0.01 0.01 0.00 0.00
0.00 0.00 0.00 0.00 0.00 0.00 0.00 0.00 0.00 0.00 0.00 0.00 0.00 0.00 0.00 0.00 0.00 0.00 0.00 0.00 0.00 0.00 0.00 0.00 0.00 0.00 0.00 0.00 0.00 0.00 0.01 0.01 0.01 0.02 0.01 0.01 0.01 0.02 0.01 0.01 0.01 0.00
0.00 0.00 0.00 0.00 0.00 0.00 0.00 0.00 0.00 0.00 0.00 0.00 0.00 0.00 0.00 0.00 0.00 0.00 0.00 0.00 0.00 0.00 0.00 0.00 0.00 0.00 0.00 0.00 0.00 0.00 0.00 0.02 0.01 0.01 0.03 0.02 0.02 0.02 0.01 0.01 0.01 0.01
0.00 0.00 0.00 0.00 0.00 0.00 0.00 0.00 0.00 0.00 0.00 0.00 0.00 0.00 0.00 0.00 0.00 0.00 0.00 0.00 0.00 0.00 0.00 0.00 0.00 0.00 0.00 0.00 0.00 0.00 0.00 0.01 0.01 0.02 0.02 0.01 0.02 0.02 0.02 0.02 0.01 0.01
0.00 0.00 0.00 0.00 0.00 0.00 0.00 0.00 0.00 0.00 0.00 0.00 0.00 0.00 0.00 0.00 0.00 0.00 0.00 0.00 0.00 0.00 0.00 0.01 0.00 0.00 0.00 0.00 0.00 0.00 0.00 0.01 0.01 0.02 0.03 0.05 0.04 0.03 0.03 0.03 0.01 0.01
0.00 0.00 0.00 0.00 0.00 0.00 0.00 0.00 0.00 0.00 0.00 0.00 0.00 0.00 0.00 0.00 0.00 0.00 0.00 0.00 0.00 0.00 0.01 0.01 0.00 0.00 0.00 0.00 0.00 0.01 0.01 0.02 0.01 0.02 0.02 0.02 0.03 0.02 0.02 0.02 0.03 0.02
0.00 0.00 0.00 0.00 0.00 0.00 0.00 0.00 0.00 0.00 0.00 0.00 0.00 0.00 0.00 0.00 0.00 0.00 0.01 0.01 0.01 0.01 0.02 0.01 0.00 0.00 0.00 0.00 0.00 0.00 0.02 0.02 0.02 0.05 0.04 0.02 0.02 0.01 0.01 0.01 0.01 0.01
0.00 0.00 0.00 0.00 0.00 0.00 0.00 0.00 0.00 0.00 0.00 0.00 0.01 0.00 0.01 0.00 0.00 0.01 0.01 0.03 0.02 0.01 0.01 0.02 0.01 0.00 0.00 0.00 0.00 0.00 0.02 0.01 0.02 0.05 0.07 0.03 0.03 0.03 0.02 0.02 0.01 0.02
0.00 0.00 0.00 0.00 0.00 0.00 0.00 0.00 0.00 0.00 0.00 0.00 0.00 0.02 0.02 0.01 0.05 0.03 0.02 0.01 0.01 0.01 0.07 0.08 0.03 0.01 0.00 0.00 0.01 0.01 0.02 0.02 0.02 0.04 0.06 0.04 0.03 0.02 0.02 0.03 0.02 0.03
0.00 0.00 0.00 0.00 0.00 0.00 0.00 0.00 0.00 0.00 0.00 0.01 0.01 0.02 0.03 0.02 0.03 0.03 0.02 0.01 0.01 0.01 0.02 0.01 0.01 0.00 0.00 0.00 0.00 0.00 0.01 0.04 0.04 0.06 0.06 0.04 0.03 0.02 0.02 0.02 0.02 0.01
MSLP
1009.97 1010.02 1010.14 1010.17 1010.14 1010.05 1010.05 1010.14 1010.02 1010.05 1009.93 1009.78 1009.93 1009.82 1009.78 1009.53 1009.38 1009.46 1009.38 1009.34 1009.29 1009.26 1009.14 1009.05 1008.93 1008.90 1008.90 1009.02 1009.22 1009.78 1010.58 1010.53 1010.14 1010.02 1010.14 1010.26 1010.29 1009.82 1009.58 1009.41 1009.41 1009.53
1009.85 1009.90 1009.90 1009.97 1010.02 1009.85 1009.78 1009.70 1009.66 1009.66 1009.66 1009.61 1009.53 1009.49 1009.38 1009.29 1009.17 1009.14 1009.17 1009.17 1009.05 1009.02 1008.85 1008.82 1008.73 1008.70 1008.78 1008.90 1009.22 1010.02 1010.14 1009.46 1009.29 1009.09 1009.26 1009.02 1008.61 1008.58 1008.66 1008.66 1008.73 1008.73
1009.66 1009.73 1009.78 1009.85 1009.85 1009.70 1009.58 1009.41 1009.41 1009.41 1009.46 1009.29 1009.22 1009.22 1009.17 1008.97 1009.02 1008.85 1008.82 1008.85 1008.85 1008.73 1008.70 1008.58 1008.53 1008.49 1008.49 1008.61 1008.85 1009.14 1009.05 1009.38 1009.53 1009.17 1009.17 1009.17 1008.97 1008.85 1008.41 1008.34 1008.38 1008.41
1009.53 1009.53 1009.58 1009.58 1009.58 1009.58 1009.41 1009.41 1009.34 1009.26 1009.17 1009.17 1009.09 1008.85 1008.78 1008.66 1008.61 1008.61 1008.58 1008.49 1008.53 1008.46 1008.34 1008.26 1008.22 1008.14 1008.09 1008.09 1008.22 1008.41 1008.49 1008.73 1008.61 1008.58 1008.73 1008.66 1008.53 1008.38 1008.22 1008.09 1008.14 1008.14
1009.38 1009.38 1009.34 1009.34 1009.26 1009.22 1009.22 1009.29 1009.26 1009.09 1009.02 1008.82 1008.66 1008.53 1008.53 1008.49 1008.46 1008.41 1008.38 1008.29 1008.26 1008.22 1008.09 1008.05 1007.90 1007.82 1007.73 1007.70 1007.70 1008.02 1008.05 1008.14 1008.05 1008.22 1008.38 1008.34 1008.02 1007.97 1007.73 1007.70 1007.78 1007.90
1009.17 1009.17 1009.22 1009.29 1009.26 1009.26 1009.26 1009.22 1009.02 1008.90 1008.82 1008.70 1008.53 1008.29 1008.26 1008.17 1008.22 1008.17 1008.09 1008.09 1007.93 1007.90 1007.82 1007.66 1007.61 1007.49 1007.38 1007.34 1007.29 1007.58 1007.66 1007.73 1007.58 1007.73 1007.93 1007.93 1007.70 1007.41 1007.29 1007.17 1007.22 1007.29
1009.05 1009.02 1009.02 1008.97 1009.05 1009.02 1009.09 1008.97 1008.82 1008.66 1008.53 1008.29 1008.09 1008.14 1007.93 1007.97 1007.97 1007.90 1007.82 1007.73 1007.70 1007.61 1007.58 1007.46 1007.38 1007.29 1007.09 1007.05 1007.05 1007.26 1007.34 1007.34 1007.26 1007.38 1007.49 1007.29 1007.17 1007.09 1006.90 1006.85 1006.85 1006.85
1008.97 1008.97 1008.97 1008.97 1009.05 1008.97 1008.93 1008.78 1008.58 1008.41 1008.17 1008.05 1008.14 1007.90 1007.78 1007.78 1007.73 1007.58 1007.49 1007.41 1007.41 1007.34 1007.26 1007.14 1007.05 1006.97 1006.85 1006.85 1006.93 1006.93 1006.97 1006.93 1006.97 1006.97 1006.97 1006.90 1006.82 1006.90 1006.78 1006.66 1006.61 1006.73
1008.73 1008.78 1008.73 1008.78 1008.82 1008.70 1008.66 1008.46 1008.26 1008.09 1007.90 1007.93 1007.85 1007.70 1007.49 1007.46 1007.38 1007.29 1007.22 1007.09 1007.09 1007.02 1006.93 1006.85 1006.73 1006.70 1006.58 1006.61 1006.61 1006.61 1006.61 1006.61 1006.49 1006.46 1006.49 1006.53 1006.58 1006.53 1006.46 1006.38 1006.46 1006.38
1008.66 1008.61 1008.66 1008.61 1008.61 1008.38 1008.29 1008.09 1007.93 1007.82 1007.58 1007.61 1007.46 1007.34 1007.34 1007.09 1006.97 1006.93 1006.85 1006.85 1006.82 1006.70 1006.61 1006.53 1006.46 1006.38 1006.26 1006.22 1006.22 1006.26 1006.26 1006.22 1006.09 1006.02 1005.93 1005.93 1005.97 1005.97 1005.93 1006.05 1006.09 1006.14
1008.49 1008.41 1008.46 1008.38 1008.29 1008.14 1008.02 1007.82 1007.66 1007.53 1007.38 1007.34 1007.22 1007.14 1006.97 1006.85 1006.70 1006.53 1006.58 1006.53 1006.53 1006.41 1006.34 1006.22 1006.09 1006.02 1005.97 1005.90 1005.82 1005.73 1005.78 1005.73 1005.66 1005.53 1005.46 1005.41 1005.41 1005.41 1005.41 1005.53 1005.61 1005.61
1008.22 1008.22 1008.17 1008.05 1007.97 1007.85 1007.70 1007.49 1007.34 1007.22 1007.09 1006.93 1006.82 1006.85 1006.66 1006.53 1006.46 1006.34 1006.22 1006.17 1006.05 1005.93 1005.82 1005.73 1005.61 1005.53 1005.53 1005.49 1005.46 1005.34 1005.29 1005.26 1005.14 1005.05 1004.97 1004.93 1004.93 1004.90 1004.93 1004.93 1005.05 1005.05
1007.90 1007.78 1007.70 1007.66 1007.61 1007.49 1007.29 1007.17 1007.05 1006.90 1006.82 1006.73 1006.46 1006.41 1006.38 1006.26 1006.05 1005.97 1005.78 1005.70 1005.58 1005.49 1005.41 1005.29 1005.17 1005.09 1005.14 1005.09 1005.05 1004.93 1004.90 1004.85 1004.78 1004.66 1004.58 1004.49 1004.41 1004.38 1004.34 1004.38 1004.41 1004.46
1007.41 1007.29 1007.29 1007.29 1007.22 1007.14 1007.02 1006.90 1006.78 1006.70 1006.53 1006.34 1006.22 1006.17 1006.02 1005.85 1005.73 1005.61 1005.38 1005.26 1005.17 1005.09 1004.93 1004.82 1004.82 1004.78 1004.70 1004.66 1004.61 1004.53 1004.46 1004.41 1004.34 1004.29 1004.22 1004.09 1003.97 1003.90 1003.82 1003.85 1003.85 1003.85
1007.17 1007.09 1007.02 1007.02 1006.97 1006.93 1006.85 1006.70 1006.58 1006.41 1006.26 1006.09 1005.93 1005.78 1005.58 1005.38 1005.22 1005.17 1005.14 1005.02 1004.82 1004.70 1004.58 1004.49 1004.46 1004.38 1004.26 1004.26 1004.26 1004.14 1004.02 1004.02 1003.90 1003.85 1003.82 1003.82 1003.70 1003.53 1003.41 1003.34 1003.29 1003.29
1007.09 1007.02 1006.93 1006.90 1006.85 1006.73 1006.58 1006.46 1006.29 1006.14 1005.97 1005.82 1005.61 1005.41 1005.26 1005.05 1004.93 1004.82 1004.73 1004.61 1004.53 1004.34 1004.26 1004.17 1004.05 1003.82 1003.66 1003.61 1003.61 1003.58 1003.53 1003.46 1003.38 1003.34 1003.38 1003.34 1003.34 1003.26 1003.09 1002.90 1002.78 1002.73
1006.97 1006.85 1006.78 1006.78 1006.58 1006.41 1006.29 1006.17 1006.02 1005.82 1005.66 1005.49 1005.29 1005.09 1004.90 1004.70 1004.58 1004.53 1004.38 1004.22 1004.14 1004.05 1003.97 1003.82 1003.58 1003.34 1003.17 1003.22 1003.26 1003.22 1003.17 1003.05 1002.97 1002.85 1002.82 1002.82 1002.82 1002.82 1002.78 1002.58 1002.38 1002.22
1006.73 1006.61 1006.61 1006.49 1006.34 1006.22 1006.02 1005.78 1005.66 1005.53 1005.41 1005.22 1005.02 1004.82 1004.53 1004.38 1004.34 1004.17 1004.02 1003.90 1003.73 1003.61 1003.53 1003.34 1003.14 1002.82 1002.78 1002.78 1002.78 1002.78 1002.78 1002.70 1002.58 1002.46 1002.38 1002.29 1002.22 1002.22 1002.14 1002.05 1001.97 1001.85
1006.49 1006.49 1006.41 1006.29 1006.14 1005.90 1005.66 1005.49 1005.41 1005.26 1005.09 1004.93 1004.73 1004.38 1004.17 1004.14 1003.97 1003.85 1003.73 1003.53 1003.46 1003.34 1003.09 1002.85 1002.66 1002.38 1002.38 1002.34 1002.29 1002.29 1002.29 1002.29 1002.17 1002.05 1001.97 1001.82 1001.70 1001.61 1001.58 1001.58 1001.49 1001.46
1006.29 1006.29 1006.22 1006.02 1005.78 1005.61 1005.41 1005.29 1005.14 1004.97 1004.66 1004.41 1004.22 1004.02 1003.93 1003.78 1003.61 1003.53 1003.34 1003.22 1003.02 1002.85 1002.58 1002.29 1002.09 1001.85 1001.85 1001.82 1001.78 1001.78 1001.78 1001.82 1001.66 1001.58 1001.41 1001.29 1001.17 1001.09 1001.02 1001.02 1000.93 1001.02
1006.14 1006.05 1005.93 1005.73 1005.49 1005.34 1005.17 1004.97 1004.78 1004.49 1004.29 1004.05 1003.90 1003.78 1003.61 1003.46 1003.26 1003.14 1002.85 1002.66 1002.46 1002.22 1002.05 1001.82 1001.46 1001.26 1001.29 1001.26 1001.26 1001.29 1001.26 1001.29 1001.09 1000.97 1000.85 1000.70 1000.53 1000.41 1000.38 1000.38 1000.29 1000.29
1005.90 1005.78 1005.61 1005.41 1005.26 1005.05 1004.93 1004.70 1004.38 1004.17 1003.93 1003.61 1003.46 1003.26 1003.05 1002.90 1002.70 1002.58 1002.41 1002.22 1001.93 1001.78 1001.61 1001.34 1000.82 1000.70 1000.66 1000.61 1000.61 1000.70 1000.78 1000.70 1000.46 1000.38 1000.29 1000.14 999.93 999.78 999.70 999.66 999.70 999.73
1005.58 1005.49 1005.38 1005.17 1004.97 1004.82 1004.58 1004.29 1004.05 1003.73 1003.46 1003.22 1003.22 1003.02 1002.85 1002.66 1002.38 1002.14 1001.85 1001.70 1001.49 1001.26 1001.14 1000.73 1000.29 1000.02 1000.02 999.93 999.97 1000.05 1000.26 1000.14 999.93 999.73 999.66 999.58 999.38 999.17 999.09 999.05 999.05 999.09
1005.26 1005.17 1005.09 1004.90 1004.70 1004.49 1004.17 1003.85 1003.53 1003.26 1003.09 1002.85 1002.93 1002.73 1002.53 1002.22 1001.90 1001.66 1001.38 1001.17 1001.02 1000.78 1000.53 1000.34 999.82 999.41 999.34 999.29 999.34 999.41 999.53 999.49 999.34 999.17 999.05 999.02 998.85 998.66 998.53 998.49 998.38 998.41
1004.93 1004.85 1004.73 1004.53 1004.34 1004.02 1003.73 1003.53 1003.22 1003.02 1002.70 1002.58 1002.46 1002.34 1002.09 1001.73 1001.49 1001.29 1000.93 1000.61 1000.38 1000.17 999.85 999.73 999.34 998.93 998.78 998.73 998.70 998.73 998.85 998.82 998.70 998.58 998.53 998.41 998.41 998.29 998.05 997.97 997.85 997.82
1004.61 1004.49 1004.29 1004.14 1003.90 1003.61 1003.34 1003.14 1002.85 1002.70 1002.53 1002.38 1002.14 1001.93 1001.70 1001.41 1001.14 1000.85 1000.58 1000.14 999.78 999.58 999.38 999.09 998.90 998.49 998.22 998.09 998.05 998.02 998.05 998.09 997.97 998.05 997.97 997.93 997.82 997.78 997.82 997.58 997.49 997.46
Thickness
5781 5780 5779 5778 5777 5778 5777 5777 5777 5776 5776 5776 5775 5774 5775 5774 5774 5773 5772 5772 5772 5772 5774 5774 5776 5778 5776 5775 5772 5767 5766 5769 5771 5773 5773 5774 5776 5779 5781 5782 5782 5781
5778 5777 5776 5775 5775 5775 5776 5775 5775 5774 5774 5774 5774 5773 5773 5773 5773 5772 5771 5771 5770 5770 5771 5771 5772 5773 5772 5771 5766 5763 5768 5773 5773 5773 5774 5778 5782 5783 5784 5785 5785 5784
5775 5774 5772 5771 5772 5772 5773 5773 5773 5773 5772 5772 5772 5771 5771 5772 5772 5771 5771 5769 5769 5768 5769 5769 5769 5769 5769 5767 5764 5766 5771 5770 5767 5768 5769 5773 5776 5778 5781 5783 5783 5784
5772 5771 5770 5769 5769 5769 5769 5770 5769 5770 5769 5770 5770 5770 5770 5771 5770 5770 5769 5768 5768 5767 5767 5767 5768 5768 5768 5767 5766 5767 5770 5767 5767 5768 5767 5771 5774 5775 5779 5780 5780 5782
5770 5769 5768 5767 5767 5767 5767 5766 5766 5767 5768 5767 5768 5769 5768 5769 5767 5767 5766 5766 5766 5766 5766 5766 5766 5767 5767 5767 5768 5767 5767 5768 5769 5768 5767 5770 5773 5775 5779 5780 5779 5780
5768 5766 5765 5764 5764 5764 5763 5763 5764 5765 5765 5766 5767 5767 5767 5766 5765 5765 5764 5764 5764 5764 5764 5764 5765 5766 5766 5766 5767 5766 5765 5767 5768 5768 5767 5769 5772 5775 5779 5780 5781 5782
5764 5763 5762 5761 5761 5760 5759 5761 5762 5762 5763 5763 5764 5764 5764 5764 5763 5763 5763 5762 5762 5762 5762 5762 5762 5763 5763 5764 5764 5763 5764 5765 5765 5766 5766 5769 5771 5774 5777 5779 5780 5781
5761 5760 5759 5757 5757 5756 5756 5757 5758 5759 5760 5760 5760 5760 5760 5760 5760 5760 5761 5761 5760 5760 5759 5760 5759 5760 5761 5761 5760 5761 5762 5762 5763 5764 5766 5768 5769 5771 5774 5775 5776 5777
5758 5756 5755 5754 5753 5753 5753 5754 5755 5756 5757 5756 5756 5757 5757 5757 5757 5758 5758 5758 5758 5757 5757 5757 5757 5757 5758 5758 5757 5758 5759 5761 5762 5763 5764 5765 5766 5768 5771 5772 5772 5774
5754 5753 5752 5751 5751 5751 5752 5751 5752 5753 5753 5753 5753 5753 5754 5754 5755 5755 5755 5754 5754 5754 5754 5755 5755 5755 5755 5754 5755 5755 5756 5758 5760 5761 5763 5764 5765 5767 5769 5769 5770 5772
5752 5750 5749 5748 5748 5749 5749 5749 5750 5750 5750 5750 5750 5750 5751 5751 5752 5752 5751 5750 5750 5751 5752 5751 5752 5752 5752 5752 5752 5753 5754 5756 5758 5759 5761 5763 5764 5766 5767 5768 5769 5771
5748 5747 5746 5746 5745 5745 5746 5747 5747 5746 5746 5747 5747 5747 5747 5748 5748 5748 5748 5748 5748 5749 5749 5749 5750 5749 5749 5749 5749 5750 5752 5753 5755 5757 5759 5761 5762 5764 5765 5766 5768 5770
5744 5744 5743 5742 5741 5742 5742 5742 5743 5743 5743 5744 5744 5744 5744 5744 5744 5744 5745 5745 5745 5746 5746 5747 5747 5747 5747 5746 5746 5747 5749 5750 5752 5753 5756 5758 5760 5762 5763 5764 5767 5769
5741 5740 5739 5738 5737 5737 5737 5737 5737 5738 5739 5740 5740 5740 5740 5741 5741 5741 5742 5742 5743 5743 5743 5743 5743 5744 5744 5743 5742 5744 5746 5747 5748 5750 5752 5755 5757 5759 5761 5762 5765 5768
5739 5738 5736 5735 5734 5733 5733 5732 5732 5733 5734 5735 5736 5736 5736 5737 5737 5738 5738 5738 5739 5739 5739 5739 5739 5740 5741 5740 5739 5740 5742 5744 5745 5747 5748 5750 5753 5755 5758 5760 5764 5766
5734 5733 5732 5731 5730 5729 5729 5729 5729 5729 5729 5730 5731 5732 5732 5733 5733 5734 5734 5734 5734 5734 5734 5735 5735 5737 5738 5737 5736 5737 5739 5741 5742 5744 5746 5747 5749 5752 5754 5758 5762 5765
5730 5729 5727 5726 5726 5725 5725 5725 5725 5726 5726 5726 5727 5728 5728 5729 5728 5729 5729 5729 5729 5730 5730 5730 5732 5734 5734 5733 5732 5733 5734 5737 5739 5741 5743 5744 5746 5750 5752 5755 5759 5762
5725 5724 5723 5722 5722 5722 5722 5723 5722 5722 5722 5722 5723 5724 5724 5725 5724 5723 5724 5724 5724 5725 5726 5727 5729 5731 5730 5729 5728 5728 5729 5731 5735 5738 5740 5742 5745 5748 5750 5753 5756 5759
5721 5720 5719 5718 5718 5718 5719 5719 5718 5718 5719 5719 5719 5720 5720 5721 5720 5720 5719 5719 5719 5720 5721 5723 5725 5726 5725 5724 5724 5725 5724 5726 5730 5733 5737 5739 5742 5746 5748 5751 5753 5756
5716 5715 5715 5714 5715 5715 5715 5715 5715 5715 5716 5716 5716 5716 5716 5716 5716 5716 5715 5715 5715 5716 5717 5720 5722 5723 5721 5720 5721 5721 5721 5722 5726 5730 5734 5737 5741 5743 5746 5749 5752 5754
5713 5712 5712 5712 5712 5711 5711 5712 5711 5712 5713 5712 5713 5712 5712 5712 5712 5712 5712 5712 5713 5713 5714 5717 5720 5720 5719 5718 5718 5718 5717 5719 5723 5728 5732 5735 5739 5742 5745 5748 5751 5754
5710 5709 5708 5709 5708 5708 5708 5708 5708 5709 5709 5709 5709 5709 5709 5709 5709 5709 5708 5709 5710 5709 5710 5713 5717 5718 5716 5716 5716 5714 5714 5716 5721 5726 5729 5734 5737 5741 5743 5747 5750 5752
5707 5706 5705 5705 5705 5704 5704 5705 5706 5707 5707 5706 5705 5705 5705 5704 5705 5706 5706 5706 5706 5707 5706 5709 5714 5716 5715 5714 5714 5713 5711 5714 5718 5723 5727 5732 5736 5740 5742 5745 5749 5751
5703 5702 5701 5701 5701 5701 5702 5703 5704 5704 5704 5703 5701 5700 5701 5701 5701 5702 5704 5703 5703 5703 5704 5706 5711 5714 5714 5713 5713 5711 5710 5712 5717 5721 5726 5730 5734 5737 5740 5744 5747 5750
5699 5699 5698 5699 5699 5699 5701 5701 5701 5701 5701 5699 5698 5697 5698 5699 5699 5699 5700 5702 5701 5702 5703 5704 5708 5712 5713 5712 5712 5711 5709 5712 5716 5719 5723 5728 5732 5734 5737 5741 5745 5748
5697 5696 5696 5697 5697 5697 5698 5698 5698 5698 5696 5695 5695 5695 5695 5695 5696 5696 5697 5700 5700 5701 5702 5703 5705 5709 5711 5711 5712 5711 5710 5711 5714 5718 5722 5725 5729 5731 5734 5738 5741 5744